User: anonymous   Login
Location: Unspecified
(0.0000°N, 0.0000°E)
Time: 07:32:14
(UTC+00:00)
Language:

CP4 - Orbit

View from above orbital plane
View from above orbital plane
View from above satellite
View from above satellite

Ground track
Ground track

The orbit data is extracted from the following two-line orbital elements,

1 31132U 07012Q   17148.82216195 +.00000147 +00000-0 +40111-4 0  9998
2 31132 098.0285 105.2854 0080293 198.9140 160.9074 14.58828251537627
Epoch (UTC): 28 May 2017 19:43:54
Eccentricity: 0.0080293
inclination: 98.0285°
perigee height: 640 km
apogee height: 754 km
right ascension of ascending node: 105.2854°
argument of perigee: 198.9140°
revolutions per day: 14.58828251
mean anomaly at epoch: 160.9074°
orbit number at epoch: 53762

The dashed part of the orbit path shows where the satellite is in the earth's shadow,  

DLR